RYR6NV LIME-LKPR

Flight info

Callsign RYR6NV
Flight time 1h 11m
Altitude 30000
Route OSKOR DCT NESTI DCT TAGIP DCT TISAX DCT BRENO M726 KOGOL N871 NENUM Z39 DOLUP DCT APRAQ
Aircraft B38M/M-SDE1FGHILORVWXY/HB1

Departure

Time 2026-05-07 19:29
Airport Il Caravaggio International Airport (LIME)

Arrival

Time 2026-05-07 20:40
Airport Václav Havel Airport Prague (LKPR)
Time Latitude Longitude Altitude Speed Heading
2026-05-07 19:11 45.66685 9.69801 790 ft 0 kts 195°
2026-05-07 19:20 45.66689 9.69802 790 ft 2 kts 195°
2026-05-07 19:20 45.66707 9.69809 790 ft 3 kts 194°
2026-05-07 19:21 45.66727 9.69816 790 ft 3 kts 193°
2026-05-07 19:21 45.66745 9.69822 790 ft 3 kts 187°
2026-05-07 19:21 45.66764 9.69821 790 ft 3 kts 155°
2026-05-07 19:21 45.66778 9.69805 790 ft 3 kts 120°
2026-05-07 19:22 45.66784 9.69782 790 ft 1 kts 105°
2026-05-07 19:22 45.66785 9.69779 790 ft 1 kts 105°
2026-05-07 19:23 45.66785 9.69780 790 ft 0 kts 105°
2026-05-07 19:24 45.66781 9.69798 790 ft 4 kts 105°
2026-05-07 19:24 45.66772 9.69844 790 ft 6 kts 105°
2026-05-07 19:24 45.66760 9.69906 790 ft 7 kts 105°
2026-05-07 19:24 45.66745 9.69985 790 ft 10 kts 105°
2026-05-07 19:25 45.66725 9.70095 790 ft 13 kts 104°
2026-05-07 19:25 45.66701 9.70227 790 ft 14 kts 105°
2026-05-07 19:25 45.66674 9.70374 790 ft 16 kts 105°
2026-05-07 19:25 45.66644 9.70534 790 ft 18 kts 105°
2026-05-07 19:26 45.66611 9.70709 790 ft 19 kts 105°
2026-05-07 19:26 45.66576 9.70897 790 ft 20 kts 105°
2026-05-07 19:26 45.66537 9.71097 790 ft 21 kts 111°
2026-05-07 19:26 45.66486 9.71302 790 ft 22 kts 105°
2026-05-07 19:27 45.66445 9.71518 790 ft 22 kts 105°
2026-05-07 19:27 45.66461 9.71738 790 ft 23 kts 77°
2026-05-07 19:27 45.66455 9.71954 790 ft 22 kts 104°
2026-05-07 19:27 45.66416 9.72175 790 ft 24 kts 104°
2026-05-07 19:28 45.66378 9.72383 790 ft 16 kts 104°
2026-05-07 19:28 45.66428 9.72456 790 ft 12 kts 346°
2026-05-07 19:28 45.66469 9.72384 790 ft 10 kts 285°
2026-05-07 19:28 45.66529 9.72059 790 ft 73 kts 284°
2026-05-07 19:29 45.66727 9.70983 790 ft 148 kts 285°
2026-05-07 19:29 45.67065 9.69377 1185 ft 179 kts 287°
2026-05-07 19:29 45.67333 9.67623 2175 ft 179 kts 272°
2026-05-07 19:29 45.67067 9.65857 3005 ft 185 kts 240°
2026-05-07 19:30 45.66184 9.64541 3837 ft 187 kts 211°
2026-05-07 19:30 45.64976 9.63813 4629 ft 191 kts 203°
2026-05-07 19:30 45.63936 9.62666 5399 ft 190 kts 231°
2026-05-07 19:30 45.63075 9.61207 6168 ft 195 kts 230°
2026-05-07 19:31 45.62050 9.59860 6686 ft 214 kts 205°
2026-05-07 19:31 45.60536 9.59670 7237 ft 224 kts 159°
2026-05-07 19:31 45.59302 9.60976 8044 ft 230 kts 122°
2026-05-07 19:31 45.58830 9.63185 8619 ft 243 kts 87°
2026-05-07 19:32 45.59393 9.65426 9452 ft 242 kts 50°
2026-05-07 19:32 45.60504 9.67256 10243 ft 249 kts 53°
2026-05-07 19:32 45.61484 9.69346 10940 ft 255 kts 56°
2026-05-07 19:32 45.62470 9.71479 11709 ft 260 kts 55°
2026-05-07 19:33 45.63487 9.73656 12429 ft 266 kts 55°
2026-05-07 19:33 45.64513 9.75887 13173 ft 272 kts 60°
2026-05-07 19:33 45.65028 9.78482 13877 ft 276 kts 89°
2026-05-07 19:33 45.64994 9.81246 14487 ft 282 kts 90°
2026-05-07 19:34 45.65000 9.84066 15148 ft 285 kts 90°
2026-05-07 19:34 45.65000 9.86913 15812 ft 288 kts 90°
2026-05-07 19:34 45.64996 9.89792 16464 ft 292 kts 90°
2026-05-07 19:34 45.64989 9.92702 17116 ft 294 kts 90°
2026-05-07 19:35 45.64981 9.95641 17754 ft 298 kts 91°
2026-05-07 19:35 45.64971 9.98611 18377 ft 300 kts 91°
2026-05-07 19:35 45.64960 10.01606 18884 ft 303 kts 91°
2026-05-07 19:35 45.64947 10.04637 19409 ft 307 kts 91°
2026-05-07 19:36 45.64935 10.07704 19926 ft 310 kts 90°
2026-05-07 19:36 45.65151 10.10767 20423 ft 312 kts 71°
2026-05-07 19:36 45.66079 10.13492 20935 ft 311 kts 54°
2026-05-07 19:36 45.67282 10.16097 21385 ft 316 kts 54°
2026-05-07 19:37 45.68521 10.18706 21849 ft 319 kts 53°
2026-05-07 19:37 45.69807 10.21356 22393 ft 320 kts 52°
2026-05-07 19:37 45.71093 10.23974 22904 ft 324 kts 52°
2026-05-07 19:37 45.72402 10.26618 23351 ft 327 kts 52°
2026-05-07 19:38 45.73702 10.29237 23782 ft 328 kts 52°
2026-05-07 19:38 45.75051 10.31947 24148 ft 332 kts 51°
2026-05-07 19:38 45.76396 10.34652 24471 ft 336 kts 52°
2026-05-07 19:38 45.77754 10.37387 24842 ft 338 kts 51°
2026-05-07 19:39 45.79118 10.40132 25217 ft 340 kts 51°
2026-05-07 19:39 45.80495 10.42905 25521 ft 343 kts 51°
2026-05-07 19:39 45.81880 10.45705 25884 ft 345 kts 52°
2026-05-07 19:39 45.83255 10.48486 26199 ft 348 kts 52°
2026-05-07 19:40 45.84674 10.51353 26312 ft 359 kts 51°
2026-05-07 19:40 45.86140 10.54326 26349 ft 371 kts 52°
2026-05-07 19:40 45.87661 10.57410 26371 ft 385 kts 52°
2026-05-07 19:40 45.89218 10.60570 26602 ft 389 kts 51°
2026-05-07 19:41 45.90775 10.63735 27088 ft 388 kts 52°
2026-05-07 19:41 45.92414 10.66819 27473 ft 386 kts 40°
2026-05-07 19:41 45.94521 10.69077 27929 ft 373 kts 20°
2026-05-07 19:41 45.96884 10.70560 28289 ft 371 kts 16°
2026-05-07 19:42 45.99282 10.71942 28646 ft 371 kts 15°
2026-05-07 19:42 46.01694 10.73268 29066 ft 370 kts 14°
2026-05-07 19:42 46.04102 10.74563 29435 ft 370 kts 13°
2026-05-07 19:42 46.06520 10.75844 29789 ft 370 kts 13°
2026-05-07 19:43 46.08935 10.77114 30061 ft 371 kts 13°
2026-05-07 19:43 46.11367 10.78389 30102 ft 370 kts 13°
2026-05-07 19:43 46.16183 10.80912 30075 ft 368 kts 12°
2026-05-07 19:44 46.20980 10.83430 30099 ft 367 kts 13°
2026-05-07 19:44 46.25783 10.85955 30080 ft 367 kts 13°
2026-05-07 19:45 46.30576 10.88479 30113 ft 367 kts 13°
2026-05-07 19:45 46.35360 10.91004 30089 ft 366 kts 13°
2026-05-07 19:46 46.40111 10.93516 30086 ft 366 kts 13°
2026-05-07 19:46 46.44892 10.96048 30112 ft 365 kts 13°
2026-05-07 19:47 46.49657 10.98578 30087 ft 365 kts 13°
2026-05-07 19:47 46.54426 11.01114 30026 ft 365 kts 13°
2026-05-07 19:48 46.59187 11.03649 30020 ft 364 kts 13°
2026-05-07 19:48 46.63954 11.06206 30022 ft 365 kts 15°
2026-05-07 19:49 46.66202 11.08007 30028 ft 373 kts 28°
2026-05-07 19:49 46.68372 11.10071 30024 ft 373 kts 26°
2026-05-07 19:49 46.72748 11.14112 29996 ft 372 kts 26°
2026-05-07 19:50 46.76376 11.17478 30052 ft 372 kts 26°
2026-05-07 19:50 46.80741 11.21538 30036 ft 372 kts 26°
2026-05-07 19:51 46.85099 11.25599 30059 ft 371 kts 26°
2026-05-07 19:51 46.89443 11.29655 30066 ft 371 kts 26°
2026-05-07 19:52 46.93789 11.33719 30056 ft 370 kts 26°
2026-05-07 19:52 46.98237 11.37322 30027 ft 355 kts
2026-05-07 19:53 47.03065 11.38066 30065 ft 350 kts 358°
2026-05-07 19:53 47.07910 11.38637 30034 ft 349 kts 357°
2026-05-07 19:54 47.12754 11.39145 30064 ft 350 kts 357°
2026-05-07 19:54 47.17601 11.39638 30085 ft 348 kts 358°
2026-05-07 19:55 47.22435 11.40123 30073 ft 347 kts 356°
2026-05-07 19:55 47.27235 11.40144 30076 ft 345 kts 354°
2026-05-07 19:56 47.32041 11.40178 30071 ft 346 kts 354°
2026-05-07 19:56 47.36847 11.40222 30076 ft 345 kts 355°
2026-05-07 19:57 47.41644 11.40189 30070 ft 345 kts 354°
2026-05-07 19:57 47.46441 11.40137 30072 ft 345 kts 354°
2026-05-07 19:58 47.51236 11.40089 30059 ft 345 kts 355°
2026-05-07 19:58 47.56024 11.40619 30049 ft 353 kts 16°
2026-05-07 19:59 47.58221 11.42385 30060 ft 369 kts 34°
2026-05-07 19:59 47.60152 11.44984 30069 ft 381 kts 39°
2026-05-07 19:59 47.64290 11.50047 30068 ft 398 kts 36°
2026-05-07 20:00 47.68652 11.55391 30054 ft 416 kts 36°
2026-05-07 20:00 47.73189 11.60986 30065 ft 430 kts 37°
2026-05-07 20:01 47.77788 11.66690 30071 ft 430 kts 37°
2026-05-07 20:01 47.82370 11.72390 30067 ft 429 kts 37°
2026-05-07 20:02 47.86951 11.78103 30058 ft 429 kts 37°
2026-05-07 20:02 47.91520 11.83814 30059 ft 429 kts 37°
2026-05-07 20:03 47.96084 11.89534 30066 ft 428 kts 38°
2026-05-07 20:03 48.00641 11.95258 30068 ft 428 kts 38°
2026-05-07 20:04 48.05196 12.00993 30064 ft 428 kts 38°
2026-05-07 20:04 48.09745 12.06735 30068 ft 428 kts 38°
2026-05-07 20:05 48.14290 12.12484 30062 ft 428 kts 38°
2026-05-07 20:05 48.18832 12.18244 30063 ft 427 kts 38°
2026-05-07 20:06 48.23369 12.24011 30066 ft 427 kts 38°
2026-05-07 20:06 48.27898 12.29784 30059 ft 427 kts 38°
2026-05-07 20:07 48.32424 12.35565 30063 ft 427 kts 38°
2026-05-07 20:07 48.36943 12.41350 30060 ft 427 kts 38°
2026-05-07 20:08 48.41458 12.47145 30064 ft 427 kts 38°
2026-05-07 20:08 48.45970 12.52951 30066 ft 426 kts 38°
2026-05-07 20:09 48.50472 12.58758 30065 ft 426 kts 38°
2026-05-07 20:10 48.57186 12.67444 30066 ft 426 kts 37°
2026-05-07 20:10 48.61680 12.73275 30062 ft 426 kts 37°
2026-05-07 20:11 48.66123 12.79059 30072 ft 409 kts 37°
2026-05-07 20:11 48.68247 12.81831 29862 ft 399 kts 37°
2026-05-07 20:11 48.70342 12.84564 29399 ft 396 kts 37°
2026-05-07 20:11 48.72419 12.87279 28981 ft 393 kts 37°
2026-05-07 20:12 48.74478 12.89970 28573 ft 389 kts 37°
2026-05-07 20:12 48.76521 12.92644 27967 ft 390 kts 37°
2026-05-07 20:12 48.78598 12.95363 27203 ft 397 kts 37°
2026-05-07 20:12 48.80677 12.98089 26797 ft 393 kts 37°
2026-05-07 20:13 48.82734 13.00792 26433 ft 389 kts 37°
2026-05-07 20:13 48.84770 13.03469 26048 ft 386 kts 37°
2026-05-07 20:13 48.86789 13.06125 25665 ft 383 kts 37°
2026-05-07 20:13 48.88792 13.08766 25283 ft 380 kts 37°
2026-05-07 20:14 48.90783 13.11392 24908 ft 378 kts 38°
2026-05-07 20:14 48.92757 13.14000 24531 ft 376 kts 38°
2026-05-07 20:14 48.94725 13.16601 24155 ft 374 kts 38°
2026-05-07 20:14 48.96681 13.19190 23784 ft 372 kts 38°
2026-05-07 20:15 48.98627 13.21768 23376 ft 370 kts 38°
2026-05-07 20:15 49.00563 13.24336 22968 ft 368 kts 38°
2026-05-07 20:15 49.02484 13.26885 22596 ft 365 kts 38°
2026-05-07 20:15 49.04385 13.29412 22235 ft 361 kts 38°
2026-05-07 20:16 49.06270 13.31921 21880 ft 358 kts 38°
2026-05-07 20:16 49.08139 13.34408 21521 ft 355 kts 38°
2026-05-07 20:16 49.09989 13.36877 21169 ft 352 kts 38°
2026-05-07 20:16 49.11824 13.39330 20809 ft 350 kts 38°
2026-05-07 20:17 49.13640 13.41795 20418 ft 349 kts 38°
2026-05-07 20:17 49.15442 13.44244 20098 ft 345 kts 38°
2026-05-07 20:17 49.17225 13.46667 19774 ft 342 kts 38°
2026-05-07 20:17 49.18995 13.49074 19439 ft 339 kts 38°
2026-05-07 20:18 49.20755 13.51469 19108 ft 337 kts 39°
2026-05-07 20:18 49.22503 13.53851 18779 ft 336 kts 39°
2026-05-07 20:18 49.24244 13.56225 18445 ft 334 kts 39°
2026-05-07 20:18 49.25975 13.58587 18082 ft 333 kts 39°
2026-05-07 20:19 49.27674 13.60908 17727 ft 331 kts 39°
2026-05-07 20:19 49.29382 13.63246 17396 ft 328 kts 39°
2026-05-07 20:19 49.31075 13.65563 17067 ft 325 kts 39°
2026-05-07 20:19 49.32752 13.67861 16748 ft 322 kts 39°
2026-05-07 20:20 49.34412 13.70138 16428 ft 319 kts 39°
2026-05-07 20:20 49.36058 13.72398 16112 ft 316 kts 39°
2026-05-07 20:20 49.37693 13.74644 15793 ft 314 kts 39°
2026-05-07 20:20 49.39313 13.76873 15487 ft 312 kts 39°
2026-05-07 20:21 49.40920 13.79085 15180 ft 309 kts 39°
2026-05-07 20:21 49.42524 13.81295 14871 ft 312 kts 39°
2026-05-07 20:21 49.44153 13.83541 14556 ft 317 kts 39°
2026-05-07 20:21 49.45797 13.85812 14240 ft 318 kts 39°
2026-05-07 20:22 49.47444 13.88088 13925 ft 319 kts 39°
2026-05-07 20:22 49.49095 13.90371 13572 ft 319 kts 39°
2026-05-07 20:22 49.50743 13.92653 13236 ft 318 kts 39°
2026-05-07 20:22 49.52381 13.94924 12898 ft 316 kts 39°
2026-05-07 20:23 49.54005 13.97176 12594 ft 313 kts 39°
2026-05-07 20:23 49.55616 13.99414 12274 ft 310 kts 39°
2026-05-07 20:23 49.57212 14.01630 11966 ft 308 kts 39°
2026-05-07 20:23 49.58795 14.03834 11655 ft 306 kts 39°
2026-05-07 20:24 49.60370 14.06025 11357 ft 304 kts 39°
2026-05-07 20:24 49.61934 14.08203 11047 ft 302 kts 40°
2026-05-07 20:24 49.63485 14.10365 10741 ft 300 kts 40°
2026-05-07 20:24 49.65005 14.12559 10427 ft 299 kts 46°
2026-05-07 20:25 49.66318 14.15033 10179 ft 296 kts 49°
2026-05-07 20:25 49.67595 14.17464 10040 ft 288 kts 49°
2026-05-07 20:25 49.68866 14.19846 9728 ft 286 kts 49°
2026-05-07 20:25 49.70134 14.22204 9421 ft 285 kts 48°
2026-05-07 20:26 49.71398 14.24546 9118 ft 282 kts 49°
2026-05-07 20:26 49.72654 14.26864 8825 ft 280 kts 48°
2026-05-07 20:26 49.73899 14.29163 8543 ft 278 kts 48°
2026-05-07 20:26 49.75134 14.31443 8250 ft 275 kts 48°
2026-05-07 20:27 49.76356 14.33700 7966 ft 273 kts 48°
2026-05-07 20:27 49.77569 14.35942 7685 ft 271 kts 49°
2026-05-07 20:27 49.78774 14.38167 7414 ft 268 kts 49°
2026-05-07 20:27 49.79968 14.40380 7105 ft 268 kts 49°
2026-05-07 20:28 49.81155 14.42578 6841 ft 265 kts 49°
2026-05-07 20:28 49.82334 14.44763 6572 ft 263 kts 49°
2026-05-07 20:28 49.83503 14.46934 6291 ft 262 kts 49°
2026-05-07 20:28 49.84629 14.49147 5995 ft 261 kts 59°
2026-05-07 20:29 49.85053 14.51842 5692 ft 261 kts 94°
2026-05-07 20:29 49.84809 14.54649 5569 ft 266 kts 99°
2026-05-07 20:29 49.84434 14.57477 5492 ft 269 kts 108°
2026-05-07 20:29 49.83847 14.60230 5470 ft 269 kts 110°
2026-05-07 20:30 49.83236 14.62969 5400 ft 267 kts 110°
2026-05-07 20:30 49.82646 14.65617 5338 ft 261 kts 110°
2026-05-07 20:30 49.82063 14.68255 5237 ft 257 kts 110°
2026-05-07 20:30 49.81479 14.70878 4927 ft 257 kts 109°
2026-05-07 20:31 49.81323 14.73586 4700 ft 252 kts 74°
2026-05-07 20:31 49.82177 14.75778 4659 ft 231 kts 34°
2026-05-07 20:31 49.83591 14.76597 4473 ft 215 kts 356°
2026-05-07 20:31 49.85007 14.76042 4104 ft 211 kts 326°
2026-05-07 20:32 49.86128 14.74586 3970 ft 211 kts 312°
2026-05-07 20:32 49.87124 14.72894 3995 ft 213 kts 309°
2026-05-07 20:32 49.88080 14.71137 3988 ft 213 kts 308°
2026-05-07 20:32 49.89004 14.69345 3970 ft 213 kts 307°
2026-05-07 20:33 49.89913 14.67531 3972 ft 213 kts 306°
2026-05-07 20:33 49.90816 14.65701 3986 ft 213 kts 306°
2026-05-07 20:33 49.91715 14.63869 3987 ft 213 kts 306°
2026-05-07 20:33 49.92306 14.62659 3975 ft 213 kts 306°
2026-05-07 20:34 49.92905 14.61430 3977 ft 214 kts 306°
2026-05-07 20:34 49.93806 14.59583 4003 ft 213 kts 306°
2026-05-07 20:34 49.94669 14.57810 4015 ft 199 kts 306°
2026-05-07 20:34 49.95487 14.56129 3987 ft 193 kts 306°
2026-05-07 20:35 49.96294 14.54469 3988 ft 193 kts 306°
2026-05-07 20:35 49.97094 14.52822 4015 ft 184 kts 306°
2026-05-07 20:35 49.97843 14.51282 4004 ft 175 kts 306°
2026-05-07 20:35 49.98569 14.49787 3979 ft 172 kts 306°
2026-05-07 20:36 49.99287 14.48307 3980 ft 172 kts 306°
2026-05-07 20:36 50.00005 14.46828 3975 ft 169 kts 306°
2026-05-07 20:36 50.00468 14.45875 4011 ft 165 kts 306°
2026-05-07 20:36 50.01151 14.44465 3828 ft 162 kts 306°
2026-05-07 20:37 50.01826 14.43073 3637 ft 161 kts 307°
2026-05-07 20:37 50.02498 14.41687 3447 ft 160 kts 307°
2026-05-07 20:37 50.03149 14.40343 3278 ft 152 kts 308°
2026-05-07 20:37 50.03772 14.39053 3052 ft 148 kts 308°
2026-05-07 20:38 50.04390 14.37779 2814 ft 147 kts 309°
2026-05-07 20:38 50.05007 14.36507 2647 ft 148 kts 309°
2026-05-07 20:38 50.05624 14.35229 2432 ft 147 kts 309°
2026-05-07 20:38 50.06241 14.33956 2250 ft 148 kts 309°
2026-05-07 20:39 50.06858 14.32681 2052 ft 147 kts 309°
2026-05-07 20:39 50.07466 14.31412 1824 ft 146 kts 309°
2026-05-07 20:39 50.08064 14.30157 1586 ft 142 kts 310°
2026-05-07 20:39 50.08666 14.28925 1368 ft 145 kts 311°
2026-05-07 20:40 50.09270 14.27698 1221 ft 135 kts 309°
2026-05-07 20:40 50.09773 14.26666 1209 ft 95 kts 306°
2026-05-07 20:40 50.10076 14.26037 1193 ft 65 kts 308°
2026-05-07 20:40 50.10226 14.25753 1190 ft 22 kts 320°
2026-05-07 20:41 50.10345 14.25672 1187 ft 18 kts 349°
2026-05-07 20:41 50.10456 14.25660 1184 ft 15 kts 16°
2026-05-07 20:41 50.10547 14.25730 1177 ft 16 kts 33°
2026-05-07 20:41 50.10644 14.25834 1176 ft 18 kts 35°
2026-05-07 20:42 50.10721 14.25915 1174 ft 11 kts 34°
2026-05-07 20:42 50.10776 14.25973 1174 ft 9 kts 33°
2026-05-07 20:42 50.10826 14.26026 1174 ft 6 kts 38°
2026-05-07 20:42 50.10831 14.26041 1174 ft 1 kts 84°
2026-05-07 20:43 50.10829 14.26077 1174 ft 5 kts 107°
2026-05-07 20:43 50.10813 14.26119 1173 ft 5 kts 123°
2026-05-07 20:43 50.10803 14.26141 1174 ft 2 kts 124°
2026-05-07 20:43 50.10802 14.26144 1174 ft 0 kts 124°